TimeCST,TemperatureF,Dew PointF,Humidity,Sea Level PressureIn,VisibilityMPH,Wind Direction,Wind SpeedMPH,Gust SpeedMPH,PrecipitationIn,Events,Conditions,WindDirDegrees,DateUTC
12:35 AM,42.8,24.8,49,30.19,10.0,Calm,Calm,-,N/A,,Scattered Clouds,0,2011-11-08 06:35:00
12:55 AM,41.0,24.8,53,30.18,10.0,Calm,Calm,-,N/A,,Partly Cloudy,0,2011-11-08 06:55:00
1:15 AM,41.0,24.8,53,30.20,10.0,Calm,Calm,-,N/A,,Mostly Cloudy,0,2011-11-08 07:15:00
1:35 AM,39.2,26.6,61,30.20,10.0,Calm,Calm,-,N/A,,Overcast,0,2011-11-08 07:35:00
1:55 AM,39.2,24.8,56,30.21,10.0,Calm,Calm,-,N/A,,Overcast,0,2011-11-08 07:55:00
2:15 AM,39.2,26.6,61,30.21,10.0,Calm,Calm,-,N/A,,Overcast,0,2011-11-08 08:15:00
3:15 AM,39.2,26.6,61,30.20,10.0,Calm,Calm,-,N/A,,Overcast,0,2011-11-08 09:15:00
3:35 AM,39.2,24.8,56,30.20,10.0,Calm,Calm,-,N/A,,Overcast,0,2011-11-08 09:35:00
3:55 AM,39.2,24.8,56,30.20,10.0,Calm,Calm,-,N/A,,Overcast,0,2011-11-08 09:55:00
4:15 AM,39.2,26.6,61,30.20,10.0,North,4.6,-,N/A,,Overcast,350,2011-11-08 10:15:00
4:35 AM,39.2,24.8,56,30.20,10.0,North,4.6,-,N/A,,Overcast,360,2011-11-08 10:35:00
4:55 AM,39.2,26.6,61,30.20,10.0,North,4.6,-,N/A,,Overcast,10,2011-11-08 10:55:00
5:35 AM,39.2,26.6,61,30.21,10.0,North,4.6,-,N/A,,Overcast,350,2011-11-08 11:35:00
6:15 AM,37.4,26.6,65,30.19,10.0,North,5.8,-,N/A,,Overcast,360,2011-11-08 12:15:00
6:35 AM,37.4,26.6,65,30.19,10.0,North,4.6,-,N/A,,Overcast,10,2011-11-08 12:35:00
6:55 AM,39.2,24.8,56,30.18,10.0,NNE,4.6,-,N/A,,Overcast,20,2011-11-08 12:55:00
7:15 AM,39.2,26.6,61,30.18,10.0,North,3.5,-,N/A,,Overcast,10,2011-11-08 13:15:00
7:35 AM,39.2,26.6,61,30.19,10.0,NNE,4.6,-,N/A,,Overcast,20,2011-11-08 13:35:00
7:55 AM,39.2,26.6,61,30.18,10.0,NNE,4.6,-,N/A,,Overcast,20,2011-11-08 13:55:00
8:15 AM,39.2,26.6,61,30.18,10.0,North,3.5,-,N/A,,Overcast,360,2011-11-08 14:15:00
8:35 AM,39.2,28.4,65,30.18,10.0,ENE,3.5,-,N/A,,Overcast,60,2011-11-08 14:35:00
8:55 AM,39.2,30.2,70,30.18,10.0,Calm,Calm,-,N/A,,Overcast,0,2011-11-08 14:55:00
9:55 AM,39.2,35.6,87,30.18,8.0,NNE,5.8,-,N/A,,Overcast,20,2011-11-08 15:55:00
10:15 AM,41.0,37.4,87,30.18,10.0,NNE,3.5,-,N/A,,Overcast,20,2011-11-08 16:15:00
10:35 AM,42.8,37.4,81,30.17,8.0,NE,3.5,-,N/A,,Overcast,40,2011-11-08 16:35:00
10:55 AM,42.8,39.2,87,30.16,8.0,East,6.9,-,N/A,,Overcast,90,2011-11-08 16:55:00
11:15 AM,42.8,39.2,87,30.16,10.0,East,6.9,-,N/A,,Mostly Cloudy,100,2011-11-08 17:15:00
11:35 AM,42.8,39.2,87,30.15,9.0,ENE,6.9,-,N/A,,Overcast,70,2011-11-08 17:35:00
11:55 AM,42.8,39.2,87,30.15,10.0,North,5.8,-,N/A,,Overcast,10,2011-11-08 17:55:00
12:15 PM,42.8,39.2,87,30.13,8.0,NNE,5.8,-,N/A,,Overcast,20,2011-11-08 18:15:00
12:35 PM,42.8,39.2,87,30.13,10.0,NNE,8.1,-,N/A,,Overcast,30,2011-11-08 18:35:00
12:55 PM,42.8,39.2,87,30.13,10.0,NE,8.1,-,N/A,,Overcast,40,2011-11-08 18:55:00
1:15 PM,42.8,41.0,93,30.13,10.0,NNE,6.9,-,N/A,,Overcast,20,2011-11-08 19:15:00
1:55 PM,42.8,39.2,87,30.11,10.0,NE,9.2,-,N/A,,Overcast,40,2011-11-08 19:55:00
2:15 PM,42.8,39.2,87,30.12,10.0,NNE,6.9,-,N/A,,Overcast,30,2011-11-08 20:15:00
2:35 PM,42.8,39.2,87,30.12,10.0,NNE,8.1,-,N/A,,Overcast,30,2011-11-08 20:35:00
2:55 PM,42.8,39.2,87,30.12,10.0,NNE,8.1,-,0.01,,Overcast,30,2011-11-08 20:55:00
3:15 PM,42.8,39.2,87,30.13,10.0,NNE,8.1,-,N/A,,Overcast,20,2011-11-08 21:15:00
3:35 PM,42.8,39.2,87,30.11,9.0,NNE,9.2,-,N/A,,Overcast,30,2011-11-08 21:35:00
3:55 PM,42.8,39.2,87,30.12,10.0,NNE,8.1,-,N/A,,Overcast,20,2011-11-08 21:55:00
4:15 PM,42.8,39.2,87,30.12,10.0,NNE,9.2,-,N/A,,Overcast,20,2011-11-08 22:15:00
4:35 PM,41.0,39.2,93,30.12,10.0,NNE,8.1,-,N/A,,Overcast,20,2011-11-08 22:35:00
4:55 PM,41.0,39.2,93,30.13,10.0,NNE,9.2,-,N/A,,Overcast,20,2011-11-08 22:55:00
5:15 PM,41.0,39.2,93,30.13,10.0,NNE,8.1,-,N/A,,Overcast,20,2011-11-08 23:15:00
5:55 PM,41.0,37.4,87,30.13,10.0,NNE,8.1,-,N/A,,Overcast,30,2011-11-08 23:55:00
6:15 PM,41.0,39.2,93,30.12,10.0,NNE,10.4,-,N/A,,Overcast,30,2011-11-09 00:15:00
6:35 PM,41.0,37.4,87,30.13,10.0,NNE,9.2,-,N/A,,Overcast,30,2011-11-09 00:35:00
6:55 PM,41.0,37.4,87,30.12,10.0,NNE,10.4,-,N/A,,Overcast,20,2011-11-09 00:55:00
7:15 PM,41.0,37.4,87,30.13,10.0,NNE,9.2,-,N/A,,Overcast,30,2011-11-09 01:15:00
7:35 PM,41.0,37.4,87,30.13,10.0,NNE,8.1,-,N/A,,Overcast,30,2011-11-09 01:35:00
7:55 PM,41.0,37.4,87,30.13,10.0,NE,9.2,-,N/A,,Overcast,40,2011-11-09 01:55:00
8:15 PM,41.0,37.4,87,30.13,10.0,NNE,8.1,-,N/A,,Overcast,30,2011-11-09 02:15:00
8:35 PM,41.0,35.6,81,30.12,10.0,NNE,8.1,-,N/A,,Overcast,30,2011-11-09 02:35:00
8:55 PM,41.0,35.6,81,30.12,10.0,NNE,11.5,16.1,N/A,,Overcast,20,2011-11-09 02:55:00
9:15 PM,41.0,37.4,87,30.11,10.0,NNE,10.4,-,N/A,,Overcast,30,2011-11-09 03:15:00
9:55 PM,41.0,35.6,81,30.10,10.0,NE,12.7,-,N/A,,Overcast,40,2011-11-09 03:55:00
10:15 PM,41.0,35.6,81,30.09,10.0,NNE,9.2,-,N/A,,Overcast,30,2011-11-09 04:15:00
10:35 PM,39.2,35.6,87,30.08,10.0,NNE,10.4,16.1,N/A,,Overcast,30,2011-11-09 04:35:00
10:55 PM,39.2,35.6,87,30.08,10.0,NNE,8.1,-,N/A,,Overcast,20,2011-11-09 04:55:00
11:15 PM,39.2,35.6,87,30.09,10.0,NNE,9.2,-,N/A,,Overcast,30,2011-11-09 05:15:00
11:35 PM,39.2,35.6,87,30.08,10.0,NNE,8.1,-,N/A,,Overcast,30,2011-11-09 05:35:00
11:55 PM,39.2,35.6,87,30.08,10.0,NNE,8.1,-,N/A,,Overcast,20,2011-11-09 05:55:00